TimeCDT,TemperatureF,Dew PointF,Humidity,Sea Level PressureIn,VisibilityMPH,Wind Direction,Wind SpeedMPH,Gust SpeedMPH,PrecipitationIn,Events,Conditions,WindDirDegrees,DateUTC
12:53 AM,81.0,69.1,67,30.00,8.0,ESE,8.1,-,N/A,,Overcast,120,2013-05-24 05:53:00
1:53 AM,79.0,68.0,69,29.99,8.0,SE,11.5,-,N/A,,Overcast,130,2013-05-24 06:53:00
2:53 AM,79.0,68.0,69,30.01,8.0,East,4.6,-,N/A,,Overcast,100,2013-05-24 07:53:00
3:53 AM,78.1,68.0,71,30.01,8.0,ESE,6.9,-,N/A,,Overcast,120,2013-05-24 08:53:00
4:53 AM,77.0,69.1,76,30.02,8.0,ESE,8.1,-,N/A,,Overcast,110,2013-05-24 09:53:00
5:53 AM,75.9,69.1,79,30.02,8.0,ESE,4.6,-,N/A,,Overcast,120,2013-05-24 10:53:00
6:31 AM,77.0,69.8,78,30.06,8.0,East,6.9,-,N/A,,Mostly Cloudy,90,2013-05-24 11:31:00
6:53 AM,77.0,70.0,79,30.04,7.0,East,8.1,-,N/A,,Mostly Cloudy,100,2013-05-24 11:53:00
7:53 AM,77.0,70.0,79,30.09,6.0,East,8.1,-,N/A,,Haze,100,2013-05-24 12:53:00
8:45 AM,78.8,71.6,78,30.12,7.0,ESE,9.2,-,N/A,,Mostly Cloudy,120,2013-05-24 13:45:00
8:53 AM,79.0,71.1,77,30.10,6.0,ESE,8.1,-,N/A,,Haze,120,2013-05-24 13:53:00
9:53 AM,81.0,71.1,72,30.11,6.0,SE,5.8,-,N/A,,Haze,130,2013-05-24 14:53:00
10:09 AM,80.6,71.6,74,30.12,6.0,ESE,6.9,-,N/A,,Haze,110,2013-05-24 15:09:00
10:53 AM,82.0,71.1,69,30.12,7.0,ESE,9.2,-,N/A,,Overcast,120,2013-05-24 15:53:00
11:38 AM,82.4,71.6,70,30.14,8.0,SE,9.2,-,N/A,,Overcast,140,2013-05-24 16:38:00
11:53 AM,84.0,70.0,63,30.12,8.0,SE,12.7,19.6,N/A,,Mostly Cloudy,140,2013-05-24 16:53:00
12:53 PM,84.9,69.1,59,30.12,10.0,SSE,10.4,-,N/A,,Overcast,150,2013-05-24 17:53:00
1:30 PM,82.4,69.8,66,30.13,9.0,East,10.4,-,0.00,Rain-Thunderstorm,Light Thunderstorms and Rain,100,2013-05-24 18:30:00
1:53 PM,84.0,69.1,61,30.10,9.0,SE,9.2,-,0.00,Thunderstorm,Thunderstorm,130,2013-05-24 18:53:00
2:25 PM,84.2,69.8,62,30.11,10.0,SE,13.8,-,N/A,,Overcast,140,2013-05-24 19:25:00
2:53 PM,86.0,66.9,53,30.07,9.0,SE,16.1,-,N/A,,Overcast,140,2013-05-24 19:53:00
3:53 PM,86.0,69.1,57,30.04,7.0,ESE,13.8,-,N/A,,Overcast,110,2013-05-24 20:53:00
4:53 PM,84.9,68.0,57,30.04,10.0,ESE,9.2,-,N/A,,Overcast,120,2013-05-24 21:53:00
5:53 PM,84.0,69.1,61,30.04,10.0,SE,13.8,-,N/A,,Overcast,130,2013-05-24 22:53:00
6:53 PM,82.9,71.1,67,30.05,10.0,SE,6.9,-,N/A,,Overcast,140,2013-05-24 23:53:00
7:53 PM,82.0,70.0,67,30.06,10.0,SE,12.7,-,N/A,,Overcast,130,2013-05-25 00:53:00
8:21 PM,73.4,62.6,69,30.12,10.0,WSW,11.5,27.6,N/A,,Overcast,240,2013-05-25 01:21:00
8:53 PM,71.1,64.9,81,30.10,5.0,SW,4.6,-,0.06,Rain,Rain,230,2013-05-25 01:53:00
9:00 PM,71.6,64.4,78,30.12,5.0,SW,8.1,-,0.03,Rain,Rain,220,2013-05-25 02:00:00
9:12 PM,69.8,64.4,83,30.12,2.0,SW,6.9,-,0.16,Rain,Rain,230,2013-05-25 02:12:00
9:25 PM,69.8,64.4,83,30.11,7.0,WSW,4.6,-,0.18,Rain,Light Rain,250,2013-05-25 02:25:00
9:53 PM,71.1,66.0,84,30.12,10.0,Variable,3.5,-,0.19,Rain,Light Rain,0,2013-05-25 02:53:00
10:53 PM,71.1,66.0,84,30.18,5.0,South,11.5,24.2,0.05,Rain,Heavy Rain,190,2013-05-25 03:53:00
11:53 PM,71.1,64.9,81,30.17,10.0,SW,4.6,-,0.03,Rain,Light Rain,230,2013-05-25 04:53:00